This is the latest recevied weather packets stored in our database for station/object HB3YKO-13. If no packets are shown the sender has not sent any weather packets the latest 10 day(s).
| Time | Temp. | Humidity | Pressure | Rain* | Wind** | Luminosity | Snow |
|---|---|---|---|---|---|---|---|
| 1778156075 | -13.89° C | 51% | 0 hPa | 0 mm | - | - | - |
| 1778155775 | -14.44° C | 52% | 0 hPa | 0 mm | - | - | - |
| 1778155475 | -7.78° C | 50% | 0 hPa | 0 mm | - | - | - |
| 1778155174 | -7.22° C | 50% | 0 hPa | 0 mm | - | - | - |
| 1778154875 | -5.56° C | 51% | 0 hPa | 0 mm | - | - | - |
| 1778154575 | -10.56° C | 52% | 0 hPa | 0 mm | - | - | - |
| 1778154275 | -6.67° C | 51% | 0 hPa | 0 mm | - | - | - |
| 1778153975 | -10° C | 53% | 0 hPa | 0 mm | - | - | - |
| 1778153675 | -11.11° C | 55% | 0 hPa | 0 mm | - | - | - |
| 1778153375 | -11.11° C | 51% | 0 hPa | 0 mm | - | - | - |
| 1778153075 | -12.78° C | 50% | 0 hPa | 0 mm | - | - | - |
| 1778152775 | -13.89° C | 50% | 0 hPa | 0 mm | - | - | - |
| 1778152475 | -13.89° C | 58% | 0 hPa | 0 mm | - | - | - |
| 1778152175 | -11.11° C | 60% | 0 hPa | 0 mm | - | - | - |
| 1778151875 | -10.56° C | 60% | 0 hPa | 0 mm | - | - | - |
| 1778151575 | -12.22° C | 60% | 0 hPa | 0 mm | - | - | - |
| 1778151275 | -13.33° C | 61% | 0 hPa | 0 mm | - | - | - |
| 1778150975 | -3.89° C | 52% | 0 hPa | 0 mm | - | - | - |
| 1778150675 | -7.78° C | 45% | 0 hPa | 0 mm | - | - | - |
| 1778150375 | -7.22° C | 46% | 0 hPa | 0 mm | - | - | - |
| 1778150075 | -6.11° C | 45% | 0 hPa | 0 mm | - | - | - |
| 1778149775 | -6.67° C | 45% | 0 hPa | 0 mm | - | - | - |
| 1778149475 | -8.33° C | 51% | 0 hPa | 0 mm | - | - | - |
| 1778149175 | -5.56° C | 49% | 0 hPa | 0 mm | - | - | - |
| 1778148875 | -8.33° C | 55% | 0 hPa | 0 mm | - | - | - |
* Rain latest hour (hover to see other rain measurements)
** Current wind speed in m/s (hover to see current wind gust speed)